Weather History for Northway, AK

Change the Weather History Date:

Monday, November 5, 2012

  Actual Average Record
Temperature  
Mean Temperature 6 °F -  
Max Temperature 9 °F 11 °F 27 °F (1970)
Min Temperature 1 °F -4 °F -37 °F (1965)
Degree Days  
Heating Degree Days 59    
Moisture  
Dew Point 1 °F    
Average Humidity 81    
Maximum Humidity 87    
Minimum Humidity 76    
Precipitation  
Precipitation 0.01 in - - ()
Snow  
Snow 0.00 in - - ()
Snow Depth 9.00 in    
Sea Level Pressure  
Sea Level Pressure 29.94 in    
Wind  
Wind Speed 8 mph (NW)    
Max Wind Speed 9 mph    
Max Gust Speed 17 mph    
Visibility 7 miles    
Events Snow    
Averages and records for this station are not official NWS values.
T = Trace of Precipitation, MM = Missing Value Source: NWS Daily Summary

Daily Weather History Graph

Daily Weather History Graph

Search for Another Location

Airport:

Trip Planner

Search our weather history database for the weather conditions in past years. The results will help you decide how hot, cold, wet, or windy it might be!

Date:

Astronomy

Nov. 05, 2012 Rise Set
Actual Time 8:18 AM AKST 4:03 PM AKST
Civil Twilight 7:26 AM AKST 4:55 PM AKST
Nautical Twilight 6:30 AM AKST 5:51 PM AKST
Astronomical Twilight 5:37 AM AKST 6:44 PM AKST
Moon 9:54 PM AKST (11/5) 1:43 PM AKST (11/5)
Length of Visible Light 9h 29m
Length of Day
7h 44m
Waning Gibbous, 61% of the Moon is Illuminated
Nov 5
Waning Gibbous
Nov 6
Last Quarter
Nov 13
New
Nov 20
First Quarter
Nov 28
Full

Hourly Weather History & Observations

Time (AKST) Temp. Windchill Dew Point Humidity Pressure Visibility Wind Dir Wind Speed Gust Speed Precip Events Conditions
12:53 AM 9.0 °F -3.2 °F 5.0 °F 84% 29.73 in 6.0 mi NW 8.1 mph - 0.00 in Snow Light Snow
1:53 AM 9.0 °F -4.2 °F 3.9 °F 80% 29.74 in 10.0 mi NW 9.2 mph - 0.00 in   Overcast
3:53 AM 8.1 °F -3.2 °F 3.0 °F 80% 29.78 in 7.0 mi WNW 6.9 mph - 0.00 in   Overcast
4:53 AM 8.1 °F -2.0 °F 3.0 °F 80% 29.81 in 10.0 mi NW 5.8 mph - N/A   Overcast
5:53 AM 7.0 °F -4.5 °F 3.0 °F 84% 29.83 in 10.0 mi NW 6.9 mph - N/A   Overcast
6:53 AM 7.0 °F -5.7 °F 1.9 °F 80% 29.85 in 10.0 mi NW 8.1 mph - N/A   Overcast
7:53 AM 6.1 °F -7.8 °F 1.0 °F 80% 29.87 in 10.0 mi NW 9.2 mph - N/A   Overcast
8:53 AM 6.1 °F -6.8 °F -0.0 °F 76% 29.88 in 10.0 mi NW 8.1 mph 17.3 mph N/A   Overcast
9:53 AM 6.1 °F -6.8 °F -0.0 °F 76% 29.91 in 10.0 mi WNW 8.1 mph - N/A   Overcast
10:53 AM 6.1 °F -5.6 °F 1.0 °F 80% 29.94 in 10.0 mi NNW 6.9 mph - N/A   Mostly Cloudy
11:53 AM 6.1 °F -6.8 °F 1.0 °F 80% 29.95 in 10.0 mi NW 8.1 mph - N/A   Mostly Cloudy
12:53 PM 7.0 °F -6.6 °F 1.0 °F 77% 29.96 in 10.0 mi NW 9.2 mph - N/A   Mostly Cloudy
1:53 PM 6.1 °F -7.8 °F 1.0 °F 80% 29.99 in 10.0 mi NW 9.2 mph - N/A   Mostly Cloudy
2:53 PM 6.1 °F -6.8 °F 1.0 °F 80% 29.99 in 10.0 mi NW 8.1 mph - N/A   Mostly Cloudy
3:29 PM 6.8 °F -4.8 °F 1.4 °F 79% 29.83 in 2.0 mi NW 6.9 mph - 0.00 in Snow Light Snow
3:40 PM 6.8 °F -4.8 °F 1.4 °F 79% 29.84 in 1.8 mi NW 6.9 mph - 0.00 in Snow Light Snow
3:53 PM 6.1 °F -6.8 °F 1.0 °F 80% 30.01 in 1.2 mi NW 8.1 mph - 0.00 in Snow Light Snow
3:59 PM 6.8 °F -5.9 °F 1.4 °F 79% 29.84 in 1.0 mi NW 8.1 mph - 0.00 in Snow Light Snow
4:53 PM 5.0 °F -6.9 °F 1.9 °F 87% 30.02 in 1.2 mi NW 6.9 mph - 0.00 in Snow Light Snow
5:53 PM 5.0 °F -6.9 °F 1.9 °F 87% 30.04 in 1.5 mi NW 6.9 mph - 0.01 in Snow Light Snow
6:53 PM 5.0 °F -6.9 °F 1.0 °F 84% 30.07 in 3.0 mi NW 6.9 mph - 0.00 in Snow Light Snow
7:53 PM 3.9 °F -9.4 °F -0.0 °F 84% 30.09 in 9.0 mi NW 8.1 mph - 0.00 in Snow Light Snow
8:53 PM 3.0 °F -9.3 °F -0.9 °F 84% 30.11 in 9.0 mi NW 6.9 mph - 0.00 in   Overcast
9:53 PM 3.0 °F -8.0 °F -0.9 °F 84% 30.13 in 10.0 mi NW 5.8 mph - N/A   Mostly Cloudy
10:53 PM 3.0 °F -6.4 °F -0.9 °F 84% 30.15 in 7.0 mi NW 4.6 mph - 0.00 in Snow Light Snow
11:53 PM 1.9 °F -9.2 °F -2.0 °F 83% 30.18 in 9.0 mi NW 5.8 mph - 0.00 in   Mostly Cloudy